Retour au catalogue

COSMOS 1579 COOLANT

LostLEO
NORAD 28272·DEBRIS·🇷🇺 Russia

Lancé Jun 29, 1984 depuis Baikonur Cosmodrome

Loading…

Prochains Passages (prochaines 24 heures)

TLE

PériméSource: Space-Track

Époque: Nov 24, 2006, 05:43 UTC

1 28272U 84069AH  06328.23863535 -.00000009 +00000-0 +64821-4 0  9997
2 28272 065.0366 178.0097 0055536 306.4758 053.3855 13.89918589142836

Suivez COSMOS 1579 COOLANT en temps réel avec AllMySat

Download on the App Store